| time (UTC) | temp C | wind direction | speed KPH | gust KPH | rain 1hr cm | rain 24hr cm | rain mn cm | humidity % | barometer mb |
| 20260903155957 | 21 | 343 | 0.0 | 1.6 | 0.00 | 0.00 | 0.00 | 76 | 1017.3 |
| 20260903155456 | 21 | 41 | 0.0 | 1.6 | 0.00 | 0.00 | 0.00 | 77 | 1017.3 |
| 20260903154953 | 21 | 329 | 0.0 | 0.0 | 0.00 | 0.00 | 0.00 | 77 | 1017.3 |
| 20260903154448 | 21 | 6 | 1.6 | 3.2 | 0.00 | 0.00 | 0.00 | 77 | 1017.0 |
| 20260903153944 | 21 | 9 | 0.0 | 0.0 | 0.00 | 0.00 | 0.00 | 77 | 1017.3 |
| 20260903153439 | 22 | 285 | 1.6 | 3.2 | 0.00 | 0.00 | 0.00 | 76 | 1017.3 |
| 20260903152936 | 22 | 346 | 0.0 | 1.6 | 0.00 | 0.00 | 0.00 | 75 | 1017.0 |
| 20260903152431 | 22 | 96 | 1.6 | 4.8 | 0.00 | 0.00 | 0.00 | 74 | 1017.3 |
| 20260903151927 | 22 | 238 | 0.0 | 3.2 | 0.00 | 0.00 | 0.00 | 76 | 1017.0 |
| 20260903151421 | 22 | 336 | 0.0 | 1.6 | 0.00 | 0.00 | 0.00 | 76 | 1017.0 |
| 20260903150916 | 22 | 294 | 3.2 | 4.8 | 0.00 | 0.00 | 0.00 | 76 | 1017.0 |
| 20260903150411 | 22 | 129 | 1.6 | 4.8 | 0.00 | 0.00 | 0.00 | 75 | 1017.3 |
| 20260903145905 | 22 | 90 | 0.0 | 1.6 | 0.00 | 0.00 | 0.00 | 76 | 1017.0 |
| 20260903145401 | 22 | 3 | 0.0 | 1.6 | 0.00 | 0.00 | 0.00 | 76 | 1017.0 |
| 20260903144900 | 22 | 56 | 1.6 | 3.2 | 0.00 | 0.00 | 0.00 | 75 | 1017.0 |
| 20260903144355 | 22 | 24 | 0.0 | 1.6 | 0.00 | 0.00 | 0.00 | 78 | 1017.0 |
| 20260903143850 | 22 | 307 | 1.6 | 1.6 | 0.00 | 0.00 | 0.00 | 77 | 1017.0 |
| 20260903143347 | 22 | 349 | 0.0 | 0.0 | 0.00 | 0.00 | 0.00 | 78 | 1016.6 |
| 20260903142842 | 21 | 346 | 0.0 | 1.6 | 0.00 | 0.00 | 0.00 | 79 | 1017.0 |
| 20260903142338 | 21 | 17 | 0.0 | 1.6 | 0.00 | 0.00 | 0.00 | 80 | 1017.0 |
| 20260903141834 | 21 | 3 | 0.0 | 1.6 | 0.00 | 0.00 | 0.00 | 82 | 1017.0 |
| 20260903141329 | 20 | 13 | 0.0 | 0.0 | 0.00 | 0.00 | 0.00 | 84 | 1016.6 |
| 20260903140824 | 20 | 352 | 0.0 | 0.0 | 0.00 | 0.00 | 0.00 | 86 | 1016.6 |
| 20260903140319 | 20 | 6 | 0.0 | 0.0 | 0.00 | 0.00 | 0.00 | 87 | 1016.6 |
| 20260903135815 | 19 | 354 | 0.0 | 1.6 | 0.00 | 0.00 | 0.00 | 87 | 1016.6 |
| 20260903135310 | 19 | 354 | 1.6 | 1.6 | 0.00 | 0.00 | 0.00 | 88 | 1016.6 |
| 20260903134809 | 19 | 22 | 1.6 | 1.6 | 0.00 | 0.00 | 0.00 | 88 | 1016.6 |
| 20260903134305 | 19 | 57 | 0.0 | 1.6 | 0.00 | 0.00 | 0.00 | 88 | 1016.6 |
| 20260903133802 | 19 | 10 | 0.0 | 3.2 | 0.00 | 0.00 | 0.00 | 88 | 1016.3 |
| 20260903133259 | 19 | 68 | 1.6 | 3.2 | 0.00 | 0.00 | 0.00 | 88 | 1016.6 |
| 20260903132758 | 19 | 347 | 0.0 | 3.2 | 0.00 | 0.00 | 0.00 | 88 | 1016.3 |
| 20260903132254 | 19 | 68 | 1.6 | 1.6 | 0.00 | 0.00 | 0.00 | 88 | 1016.6 |
| 20260903131749 | 19 | 346 | 0.0 | 1.6 | 0.00 | 0.00 | 0.00 | 88 | 1016.6 |
| 20260903131248 | 19 | 55 | 1.6 | 3.2 | 0.00 | 0.00 | 0.00 | 88 | 1016.6 |
| 20260903130743 | 19 | 1 | 0.0 | 1.6 | 0.00 | 0.00 | 0.00 | 88 | 1016.6 |
| 20260903130238 | 19 | 351 | 0.0 | 3.2 | 0.00 | 0.00 | 0.00 | 88 | 1016.6 |
| 20260903125736 | 19 | 343 | 0.0 | 1.6 | 0.00 | 0.00 | 0.00 | 88 | 1016.6 |
| 20260903125232 | 19 | 41 | 1.6 | 3.2 | 0.00 | 0.00 | 0.00 | 88 | 1016.6 |
| 20260903124731 | 19 | 51 | 3.2 | 4.8 | 0.00 | 0.00 | 0.00 | 88 | 1016.6 |
| 20260903124226 | 19 | 358 | 3.2 | 4.8 | 0.00 | 0.00 | 0.00 | 88 | 1016.3 |
| 20260903123725 | 19 | 48 | 3.2 | 3.2 | 0.00 | 0.00 | 0.00 | 88 | 1016.3 |
| 20260903123224 | 19 | 13 | 1.6 | 3.2 | 0.00 | 0.00 | 0.00 | 88 | 1016.3 |
| 20260903122723 | 19 | 345 | 0.0 | 1.6 | 0.00 | 0.00 | 0.00 | 88 | 1016.3 |
| 20260903122218 | 19 | 353 | 0.0 | 3.2 | 0.00 | 0.00 | 0.00 | 88 | 1016.6 |
| 20260903121716 | 19 | 354 | 0.0 | 1.6 | 0.00 | 0.00 | 0.00 | 88 | 1016.6 |
| 20260903121213 | 19 | 331 | 0.0 | 3.2 | 0.00 | 0.00 | 0.00 | 88 | 1016.6 |
| 20260903120712 | 19 | 346 | 0.0 | 1.6 | 0.00 | 0.00 | 0.00 | 88 | 1016.3 |
| 20260903120206 | 19 | 329 | 1.6 | 1.6 | 0.00 | 0.00 | 0.00 | 88 | 1016.6 |
| 20260903115705 | 19 | 37 | 1.6 | 4.8 | 0.00 | 0.00 | 0.00 | 88 | 1016.3 |
| 20260903115201 | 19 | 345 | 0.0 | 3.2 | 0.00 | 0.00 | 0.00 | 88 | 1016.6 |
| 20260903114655 | 19 | 70 | 3.2 | 3.2 | 0.00 | 0.00 | 0.00 | 88 | 1016.6 |
| 20260903114150 | 19 | 19 | 0.0 | 1.6 | 0.00 | 0.00 | 0.00 | 88 | 1016.6 |
| 20260903113645 | 19 | 12 | 0.0 | 3.2 | 0.00 | 0.00 | 0.00 | 88 | 1016.6 |
| 20260903113142 | 19 | 8 | 3.2 | 3.2 | 0.00 | 0.00 | 0.00 | 88 | 1016.3 |
| 20260903112637 | 19 | 350 | 1.6 | 3.2 | 0.00 | 0.00 | 0.00 | 89 | 1016.6 |
| 20260903112132 | 19 | 16 | 3.2 | 3.2 | 0.00 | 0.00 | 0.00 | 89 | 1016.6 |
| 20260903111631 | 19 | 36 | 1.6 | 1.6 | 0.00 | 0.00 | 0.00 | 89 | 1016.6 |
| 20260903111127 | 18 | 1 | 0.0 | 1.6 | 0.00 | 0.00 | 0.00 | 89 | 1016.3 |
| 20260903110623 | 18 | 43 | 1.6 | 4.8 | 0.00 | 0.00 | 0.00 | 89 | 1016.3 |
| 20260903110118 | 18 | 359 | 0.0 | 4.8 | 0.00 | 0.00 | 0.00 | 89 | 1017.0 |
| 20260903105612 | 18 | 6 | 1.6 | 3.2 | 0.00 | 0.00 | 0.00 | 89 | 1017.0 |
| 20260903105102 | 18 | 28 | 1.6 | 3.2 | 0.00 | 0.00 | 0.00 | 89 | 1016.6 |
| 20260903104602 | 18 | 28 | 1.6 | 3.2 | 0.00 | 0.00 | 0.00 | 89 | 1016.6 |
| 20260903104057 | 18 | 47 | 3.2 | 3.2 | 0.00 | 0.00 | 0.00 | 89 | 1017.0 |
| 20260903103553 | 18 | 28 | 0.0 | 3.2 | 0.00 | 0.00 | 0.00 | 89 | 1016.6 |
| 20260903103049 | 18 | 357 | 0.0 | 1.6 | 0.00 | 0.00 | 0.00 | 88 | 1017.0 |
| 20260903102544 | 18 | 52 | 3.2 | 3.2 | 0.00 | 0.00 | 0.00 | 88 | 1016.6 |
| 20260903102043 | 18 | 18 | 3.2 | 3.2 | 0.00 | 0.00 | 0.00 | 88 | 1016.6 |
| 20260903101538 | 18 | 3 | 1.6 | 3.2 | 0.00 | 0.00 | 0.00 | 88 | 1017.0 |
| 20260903101034 | 18 | 35 | 1.6 | 3.2 | 0.00 | 0.00 | 0.00 | 87 | 1016.6 |
| 20260903100533 | 18 | 76 | 1.6 | 3.2 | 0.00 | 0.00 | 0.00 | 87 | 1016.6 |
| 20260903100032 | 18 | 36 | 1.6 | 3.2 | 0.00 | 0.00 | 0.00 | 86 | 1017.0 |
| 20260903095531 | 18 | 54 | 3.2 | 3.2 | 0.00 | 0.00 | 0.00 | 85 | 1016.6 |
| 20260903095025 | 18 | 27 | 1.6 | 1.6 | 0.00 | 0.00 | 0.00 | 85 | 1016.6 |
| 20260903094520 | 18 | 28 | 1.6 | 3.2 | 0.00 | 0.00 | 0.00 | 84 | 1016.6 |
| 20260903094016 | 18 | 39 | 1.6 | 1.6 | 0.00 | 0.00 | 0.00 | 84 | 1016.6 |
| 20260903093516 | 18 | 348 | 0.0 | 0.0 | 0.00 | 0.00 | 0.00 | 83 | 1017.0 |
| 20260903093011 | 18 | 12 | 0.0 | 1.6 | 0.00 | 0.00 | 0.00 | 83 | 1017.0 |
| 20260903092510 | 18 | 346 | 1.6 | 3.2 | 0.00 | 0.00 | 0.00 | 83 | 1017.0 |
| 20260903092005 | 18 | 340 | 0.0 | 0.0 | 0.00 | 0.00 | 0.00 | 83 | 1017.0 |
| 20260903091503 | 18 | 352 | 0.0 | 3.2 | 0.00 | 0.00 | 0.00 | 83 | 1017.0 |
| 20260903090958 | 18 | 349 | 0.0 | 0.0 | 0.00 | 0.00 | 0.00 | 83 | 1017.0 |
| 20260903090454 | 18 | 350 | 0.0 | 1.6 | 0.00 | 0.00 | 0.00 | 83 | 1017.0 |
| 20260903085952 | 18 | 339 | 0.0 | 0.0 | 0.00 | 0.00 | 0.00 | 83 | 1017.0 |
| 20260903085450 | 18 | 338 | 0.0 | 0.0 | 0.00 | 0.00 | 0.00 | 82 | 1017.0 |
| 20260903084946 | 18 | 352 | 0.0 | 0.0 | 0.00 | 0.00 | 0.00 | 82 | 1017.3 |
| 20260903084444 | 18 | 335 | 0.0 | 1.6 | 0.00 | 0.00 | 0.00 | 82 | 1017.3 |
| 20260903083939 | 18 | 345 | 0.0 | 1.6 | 0.00 | 0.00 | 0.00 | 82 | 1017.3 |
| 20260903083436 | 18 | 341 | 0.0 | 0.0 | 0.00 | 0.00 | 0.00 | 82 | 1017.0 |
| 20260903082935 | 18 | 342 | 0.0 | 1.6 | 0.00 | 0.00 | 0.00 | 82 | 1017.0 |
| 20260903082429 | 18 | 338 | 0.0 | 1.6 | 0.00 | 0.00 | 0.00 | 82 | 1017.6 |
| 20260903081924 | 18 | 345 | 0.0 | 1.6 | 0.00 | 0.00 | 0.00 | 82 | 1017.3 |
| 20260903081420 | 18 | 348 | 0.0 | 0.0 | 0.00 | 0.00 | 0.00 | 83 | 1017.6 |
| 20260903080916 | 18 | 340 | 0.0 | 0.0 | 0.00 | 0.00 | 0.00 | 83 | 1017.3 |
| 20260903080412 | 18 | 342 | 0.0 | 0.0 | 0.00 | 0.00 | 0.00 | 83 | 1017.6 |
| 20260903075908 | 18 | 349 | 0.0 | 0.0 | 0.00 | 0.00 | 0.00 | 84 | 1017.6 |
| 20260903075403 | 18 | 338 | 0.0 | 0.0 | 0.00 | 0.00 | 0.00 | 84 | 1017.6 |
| 20260903074903 | 18 | 337 | 0.0 | 0.0 | 0.00 | 0.00 | 0.00 | 84 | 1017.6 |
| 20260903074357 | 19 | 336 | 0.0 | 0.0 | 0.00 | 0.00 | 0.00 | 84 | 1017.6 |
| 20260903073852 | 19 | 336 | 0.0 | 0.0 | 0.00 | 0.00 | 0.00 | 84 | 1017.3 |
| 20260903073347 | 19 | 342 | 0.0 | 0.0 | 0.00 | 0.00 | 0.00 | 83 | 1017.6 |
| 20260903072843 | 19 | 337 | 0.0 | 0.0 | 0.00 | 0.00 | 0.00 | 83 | 1017.6 |
| 20260903072339 | 20 | 341 | 0.0 | 1.6 | 0.00 | 0.00 | 0.00 | 83 | 1017.0 |
| 20260903071836 | 20 | 356 | 0.0 | 1.6 | 0.00 | 0.00 | 0.00 | 83 | 1017.3 |
| 20260903071332 | 20 | 349 | 0.0 | 0.0 | 0.00 | 0.00 | 0.00 | 83 | 1017.3 |
| 20260903070826 | 20 | 344 | 0.0 | 0.0 | 0.00 | 0.00 | 0.00 | 82 | 1017.3 |
| 20260903070322 | 20 | 347 | 0.0 | 0.0 | 0.00 | 0.00 | 0.00 | 82 | 1017.3 |
| 20260903065816 | 20 | 345 | 0.0 | 1.6 | 0.00 | 0.00 | 0.00 | 82 | 1017.3 |
| 20260903065316 | 20 | 15 | 3.2 | 3.2 | 0.00 | 0.00 | 0.00 | 82 | 1017.3 |
| 20260903064815 | 20 | 358 | 1.6 | 4.8 | 0.00 | 0.00 | 0.00 | 82 | 1017.3 |
| 20260903064310 | 20 | 354 | 0.0 | 3.2 | 0.00 | 0.00 | 0.00 | 82 | 1017.3 |
| 20260903063807 | 20 | 343 | 0.0 | 1.6 | 0.00 | 0.00 | 0.00 | 82 | 1017.3 |
| 20260903063302 | 20 | 350 | 1.6 | 1.6 | 0.00 | 0.00 | 0.00 | 81 | 1017.0 |
| 20260903062757 | 20 | 347 | 0.0 | 3.2 | 0.00 | 0.00 | 0.00 | 81 | 1017.3 |
| 20260903062256 | 20 | 32 | 3.2 | 3.2 | 0.00 | 0.00 | 0.00 | 81 | 1017.3 |
| 20260903061753 | 20 | 49 | 1.6 | 4.8 | 0.00 | 0.00 | 0.00 | 81 | 1017.3 |
| 20260903061252 | 20 | 8 | 1.6 | 3.2 | 0.00 | 0.00 | 0.00 | 81 | 1017.3 |
| 20260903060748 | 20 | 15 | 1.6 | 3.2 | 0.00 | 0.00 | 0.00 | 80 | 1017.3 |
| 20260903060247 | 20 | 27 | 1.6 | 1.6 | 0.00 | 0.00 | 0.00 | 80 | 1017.3 |
| 20260903055745 | 20 | 21 | 1.6 | 3.2 | 0.00 | 0.00 | 0.00 | 80 | 1017.3 |
| 20260903055244 | 20 | 15 | 0.0 | 1.6 | 0.00 | 0.00 | 0.00 | 79 | 1017.0 |
| 20260903054739 | 20 | 355 | 0.0 | 0.0 | 0.00 | 0.00 | 0.00 | 79 | 1017.0 |
| 20260903054234 | 20 | 357 | 0.0 | 0.0 | 0.00 | 0.00 | 0.00 | 79 | 1017.0 |
| 20260903053730 | 20 | 3 | 0.0 | 1.6 | 0.00 | 0.00 | 0.00 | 79 | 1017.0 |
| 20260903053225 | 20 | 14 | 0.0 | 1.6 | 0.00 | 0.00 | 0.00 | 79 | 1017.0 |
| 20260903052720 | 20 | 346 | 0.0 | 1.6 | 0.00 | 0.00 | 0.00 | 80 | 1017.0 |
| 20260903052216 | 20 | 352 | 0.0 | 0.0 | 0.00 | 0.00 | 0.00 | 80 | 1017.0 |
| 20260903051711 | 20 | 352 | 0.0 | 1.6 | 0.00 | 0.00 | 0.00 | 80 | 1017.3 |
| 20260903051206 | 20 | 346 | 0.0 | 0.0 | 0.00 | 0.00 | 0.00 | 80 | 1017.0 |
| 20260903050702 | 20 | 347 | 0.0 | 1.6 | 0.00 | 0.00 | 0.00 | 80 | 1017.0 |
| 20260903050201 | 20 | 359 | 0.0 | 0.0 | 0.00 | 0.00 | 0.00 | 80 | 1017.3 |
| 20260903045656 | 20 | 346 | 0.0 | 1.6 | 0.00 | 0.00 | 0.00 | 80 | 1017.0 |
| 20260903045152 | 20 | 9 | 0.0 | 0.0 | 0.00 | 0.00 | 0.00 | 80 | 1017.0 |
| 20260903044648 | 20 | 349 | 0.0 | 0.0 | 0.00 | 0.00 | 0.00 | 80 | 1017.0 |
| 20260903044143 | 20 | 358 | 1.6 | 1.6 | 0.00 | 0.00 | 0.00 | 80 | 1017.0 |
| 20260903043641 | 20 | 345 | 0.0 | 1.6 | 0.00 | 0.00 | 0.00 | 80 | 1017.0 |
| 20260903043139 | 20 | 344 | 0.0 | 0.0 | 0.00 | 0.00 | 0.00 | 80 | 1017.0 |
| 20260903042638 | 20 | 348 | 0.0 | 1.6 | 0.00 | 0.00 | 0.00 | 80 | 1017.0 |
| 20260903042133 | 20 | 347 | 0.0 | 1.6 | 0.00 | 0.00 | 0.00 | 80 | 1017.0 |
| 20260903041630 | 20 | 6 | 1.6 | 1.6 | 0.00 | 0.00 | 0.00 | 80 | 1017.0 |
| 20260903041126 | 20 | 18 | 1.6 | 3.2 | 0.00 | 0.00 | 0.00 | 81 | 1017.0 |
| 20260903040624 | 20 | 343 | 0.0 | 1.6 | 0.00 | 0.00 | 0.00 | 81 | 1017.0 |
| 20260903040121 | 21 | 8 | 1.6 | 1.6 | 0.00 | 0.00 | 0.00 | 81 | 1017.0 |
| 20260903035616 | 21 | 353 | 1.6 | 3.2 | 0.00 | 0.00 | 0.00 | 81 | 1017.0 |
| 20260903035112 | 21 | 350 | 1.6 | 3.2 | 0.00 | 0.00 | 0.00 | 81 | 1017.0 |
| 20260903034607 | 21 | 49 | 0.0 | 3.2 | 0.00 | 0.00 | 0.00 | 81 | 1016.6 |
| 20260903034102 | 21 | 11 | 1.6 | 1.6 | 0.00 | 0.00 | 0.00 | 81 | 1016.6 |
| 20260903033557 | 21 | 40 | 1.6 | 4.8 | 0.00 | 0.00 | 0.00 | 81 | 1016.6 |
| 20260903033052 | 21 | 39 | 3.2 | 3.2 | 0.00 | 0.00 | 0.00 | 81 | 1016.6 |
| 20260903032547 | 21 | 3 | 0.0 | 1.6 | 0.00 | 0.00 | 0.00 | 81 | 1016.3 |
| 20260903032043 | 21 | 44 | 0.0 | 3.2 | 0.00 | 0.00 | 0.00 | 81 | 1016.6 |
| 20260903031542 | 21 | 35 | 1.6 | 1.6 | 0.00 | 0.00 | 0.00 | 80 | 1016.3 |
| 20260903031037 | 21 | 36 | 0.0 | 3.2 | 0.00 | 0.00 | 0.00 | 80 | 1016.3 |
| 20260903030533 | 21 | 354 | 0.0 | 0.0 | 0.00 | 0.00 | 0.00 | 79 | 1016.3 |
| 20260903030029 | 21 | 335 | 0.0 | 0.0 | 0.00 | 0.00 | 0.00 | 79 | 1016.3 |
| 20260903025523 | 21 | 342 | 0.0 | 3.2 | 0.00 | 0.00 | 0.00 | 78 | 1016.6 |
| 20260903025020 | 21 | 264 | 0.0 | 1.6 | 0.00 | 0.00 | 0.00 | 76 | 1016.3 |
| 20260903024513 | 21 | 256 | 3.2 | 3.2 | 0.00 | 0.00 | 0.00 | 75 | 1016.6 |
| 20260903024007 | 21 | 317 | 0.0 | 1.6 | 0.00 | 0.00 | 0.00 | 74 | 1016.6 |
| 20260903023503 | 21 | 322 | 0.0 | 3.2 | 0.00 | 0.00 | 0.00 | 73 | 1016.6 |
| 20260903022958 | 21 | 349 | 1.6 | 3.2 | 0.00 | 0.00 | 0.00 | 72 | 1016.3 |
| 20260903022457 | 21 | 326 | 1.6 | 4.8 | 0.00 | 0.00 | 0.00 | 72 | 1016.6 |
| 20260903021955 | 21 | 323 | 3.2 | 3.2 | 0.00 | 0.00 | 0.00 | 71 | 1016.6 |
| 20260903021451 | 21 | 178 | 1.6 | 4.8 | 0.00 | 0.00 | 0.00 | 70 | 1016.3 |
| 20260903020946 | 21 | 290 | 1.6 | 3.2 | 0.00 | 0.00 | 0.00 | 70 | 1016.6 |
| 20260903020441 | 22 | 318 | 3.2 | 6.4 | 0.00 | 0.00 | 0.00 | 70 | 1016.6 |
| 20260903015936 | 22 | 235 | 0.0 | 1.6 | 0.00 | 0.00 | 0.00 | 69 | 1016.6 |
| 20260903015432 | 22 | 261 | 4.8 | 6.4 | 0.00 | 0.00 | 0.00 | 68 | 1016.3 |
| 20260903014927 | 22 | 291 | 1.6 | 4.8 | 0.00 | 0.00 | 0.00 | 66 | 1016.6 |
| 20260903014426 | 22 | 300 | 4.8 | 6.4 | 0.00 | 0.00 | 0.00 | 65 | 1016.3 |
| 20260903013922 | 22 | 323 | 4.8 | 12.9 | 0.00 | 0.00 | 0.00 | 65 | 1016.6 |
| 20260903013421 | 22 | 290 | 1.6 | 6.4 | 0.00 | 0.00 | 0.00 | 67 | 1016.6 |
| 20260903012921 | 22 | 293 | 1.6 | 4.8 | 0.00 | 0.00 | 0.00 | 68 | 1017.0 |
| 20260903012420 | 22 | 271 | 3.2 | 6.4 | 0.00 | 0.00 | 0.00 | 69 | 1016.6 |
| 20260903011919 | 22 | 6 | 4.8 | 6.4 | 0.00 | 0.00 | 0.00 | 69 | 1017.0 |
| 20260903011414 | 22 | 298 | 1.6 | 3.2 | 0.00 | 0.00 | 0.00 | 68 | 1016.6 |
| 20260903010909 | 22 | 326 | 1.6 | 3.2 | 0.00 | 0.00 | 0.00 | 68 | 1016.6 |
| 20260903010405 | 22 | 333 | 1.6 | 4.8 | 0.00 | 0.00 | 0.00 | 69 | 1017.0 |
| 20260903005902 | 22 | 235 | 3.2 | 6.4 | 0.00 | 0.00 | 0.00 | 70 | 1016.6 |
| 20260903005358 | 22 | 300 | 0.0 | 3.2 | 0.00 | 0.00 | 0.00 | 70 | 1017.0 |
| 20260903004854 | 22 | 253 | 3.2 | 9.7 | 0.00 | 0.00 | 0.00 | 71 | 1016.6 |
| 20260903004349 | 22 | 288 | 4.8 | 11.3 | 0.00 | 0.00 | 0.00 | 72 | 1016.6 |
| 20260903003845 | 23 | 315 | 3.2 | 9.7 | 0.00 | 0.00 | 0.00 | 71 | 1017.0 |
| 20260903003345 | 22 | 185 | 3.2 | 11.3 | 0.00 | 0.00 | 0.00 | 70 | 1017.0 |
| 20260903002844 | 22 | 187 | 4.8 | 6.4 | 0.00 | 0.00 | 0.00 | 69 | 1016.6 |
| 20260903002339 | 23 | 258 | 6.4 | 9.7 | 0.00 | 0.00 | 0.00 | 67 | 1017.0 |
| 20260903001834 | 23 | 337 | 0.0 | 6.4 | 0.00 | 0.00 | 0.00 | 69 | 1017.0 |
| 20260903001330 | 24 | 227 | 6.4 | 9.7 | 0.00 | 0.00 | 0.00 | 68 | 1017.0 |
| 20260903000829 | 24 | 206 | 3.2 | 9.7 | 0.00 | 0.00 | 0.00 | 67 | 1017.0 |
| 20260903000325 | 24 | 319 | 3.2 | 9.7 | 0.00 | 0.00 | 0.00 | 67 | 1017.0 |
| 20260902235822 | 24 | 263 | 4.8 | 9.7 | 0.00 | 0.00 | 0.00 | 66 | 1017.0 |
| 20260902235318 | 24 | 337 | 8.0 | 12.9 | 0.00 | 0.00 | 0.00 | 66 | 1017.0 |
| 20260902234812 | 23 | 240 | 6.4 | 12.9 | 0.00 | 0.00 | 0.00 | 66 | 1017.0 |
| 20260902234311 | 23 | 197 | 6.4 | 12.9 | 0.00 | 0.00 | 0.00 | 67 | 1017.0 |
| 20260902233811 | 24 | 239 | 9.7 | 11.3 | 0.00 | 0.00 | 0.00 | 64 | 1017.0 |
| 20260902233311 | 23 | 233 | 6.4 | 12.9 | 0.00 | 0.00 | 0.00 | 68 | 1017.0 |
| 20260902232809 | 25 | 243 | 4.8 | 6.4 | 0.00 | 0.00 | 0.00 | 67 | 1017.0 |
| 20260902232309 | 25 | 311 | 1.6 | 9.7 | 0.00 | 0.00 | 0.00 | 64 | 1017.0 |
| 20260902231809 | 25 | 305 | 3.2 | 11.3 | 0.00 | 0.00 | 0.00 | 66 | 1017.0 |
| 20260902231304 | 25 | 262 | 6.4 | 9.7 | 0.00 | 0.00 | 0.00 | 65 | 1017.0 |
| 20260902230759 | 24 | 313 | 1.6 | 12.9 | 0.00 | 0.00 | 0.00 | 68 | 1017.3 |
| 20260902230258 | 24 | 271 | 6.4 | 11.3 | 0.00 | 0.00 | 0.00 | 66 | 1017.3 |
| 20260902225752 | 25 | 283 | 4.8 | 9.7 | 0.00 | 0.00 | 0.00 | 65 | 1017.3 |
| 20260902225248 | 24 | 291 | 6.4 | 12.9 | 0.00 | 0.00 | 0.00 | 66 | 1017.3 |
| 20260902224746 | 24 | 250 | 8.0 | 11.3 | 0.00 | 0.00 | 0.00 | 67 | 1017.3 |
| 20260902224242 | 25 | 215 | 6.4 | 12.9 | 0.00 | 0.00 | 0.00 | 65 | 1017.6 |
| 20260902223738 | 25 | 281 | 6.4 | 12.9 | 0.00 | 0.00 | 0.00 | 67 | 1017.6 |
| 20260902223237 | 25 | 321 | 4.8 | 12.9 | 0.00 | 0.00 | 0.00 | 66 | 1017.6 |
| 20260902222731 | 25 | 334 | 1.6 | 3.2 | 0.00 | 0.00 | 0.00 | 63 | 1017.6 |
| 20260902222230 | 26 | 319 | 3.2 | 6.4 | 0.00 | 0.00 | 0.00 | 63 | 1017.6 |
| 20260902221720 | 26 | 287 | 3.2 | 6.4 | 0.00 | 0.00 | 0.00 | 63 | 1017.6 |
| 20260902221219 | 25 | 290 | 3.2 | 6.4 | 0.00 | 0.00 | 0.00 | 61 | 1018.0 |
| 20260902220714 | 25 | 227 | 4.8 | 9.7 | 0.00 | 0.00 | 0.00 | 61 | 1017.6 |
| 20260902220209 | 25 | 296 | 3.2 | 11.3 | 0.00 | 0.00 | 0.00 | 63 | 1017.6 |
| 20260902215704 | 25 | 193 | 3.2 | 9.7 | 0.00 | 0.00 | 0.00 | 62 | 1018.0 |
| 20260902215200 | 25 | 264 | 8.0 | 11.3 | 0.00 | 0.00 | 0.00 | 60 | 1017.6 |
| 20260902214655 | 25 | 264 | 4.8 | 9.7 | 0.00 | 0.00 | 0.00 | 62 | 1018.3 |
| 20260902214154 | 25 | 256 | 3.2 | 11.3 | 0.00 | 0.00 | 0.00 | 61 | 1017.6 |
| 20260902213649 | 25 | 181 | 3.2 | 6.4 | 0.00 | 0.00 | 0.00 | 60 | 1018.0 |
| 20260902213149 | 26 | 304 | 1.6 | 9.7 | 0.00 | 0.00 | 0.00 | 59 | 1018.0 |
| 20260902212644 | 26 | 236 | 1.6 | 9.7 | 0.00 | 0.00 | 0.00 | 59 | 1018.0 |
| 20260902212140 | 26 | 313 | 4.8 | 11.3 | 0.00 | 0.00 | 0.00 | 60 | 1018.0 |
| 20260902211637 | 25 | 170 | 3.2 | 9.7 | 0.00 | 0.00 | 0.00 | 61 | 1018.0 |
| 20260902211137 | 25 | 240 | 6.4 | 11.3 | 0.00 | 0.00 | 0.00 | 60 | 1018.0 |
| 20260902210636 | 25 | 332 | 1.6 | 12.9 | 0.00 | 0.00 | 0.00 | 61 | 1018.0 |
| 20260902210131 | 25 | 224 | 4.8 | 9.7 | 0.00 | 0.00 | 0.00 | 60 | 1018.3 |
| 20260902205630 | 25 | 274 | 1.6 | 9.7 | 0.00 | 0.00 | 0.00 | 61 | 1018.3 |
| 20260902205125 | 25 | 209 | 6.4 | 9.7 | 0.00 | 0.00 | 0.00 | 60 | 1018.3 |
| 20260902204620 | 25 | 276 | 4.8 | 9.7 | 0.00 | 0.00 | 0.00 | 60 | 1018.3 |
| 20260902204115 | 25 | 248 | 6.4 | 11.3 | 0.00 | 0.00 | 0.00 | 60 | 1018.7 |
| 20260902203611 | 25 | 241 | 3.2 | 9.7 | 0.00 | 0.00 | 0.00 | 60 | 1018.7 |
| 20260902203110 | 25 | 238 | 1.6 | 6.4 | 0.00 | 0.00 | 0.00 | 60 | 1018.7 |
| 20260902202606 | 25 | 237 | 1.6 | 6.4 | 0.00 | 0.00 | 0.00 | 61 | 1018.7 |
| 20260902202102 | 25 | 248 | 8.0 | 9.7 | 0.00 | 0.00 | 0.00 | 60 | 1018.7 |
| 20260902201558 | 26 | 340 | 1.6 | 9.7 | 0.00 | 0.00 | 0.00 | 61 | 1018.7 |
| 20260902201056 | 25 | 220 | 3.2 | 6.4 | 0.00 | 0.00 | 0.00 | 63 | 1018.7 |
| 20260902200552 | 25 | 213 | 4.8 | 12.9 | 0.00 | 0.00 | 0.00 | 60 | 1018.7 |
| 20260902200048 | 25 | 271 | 6.4 | 9.7 | 0.00 | 0.00 | 0.00 | 63 | 1018.7 |
| 20260902195543 | 25 | 235 | 6.4 | 12.9 | 0.00 | 0.00 | 0.00 | 63 | 1019.0 |
| 20260902195042 | 25 | 280 | 1.6 | 6.4 | 0.00 | 0.00 | 0.00 | 62 | 1018.7 |
| 20260902194536 | 25 | 171 | 6.4 | 9.7 | 0.00 | 0.00 | 0.00 | 62 | 1018.7 |
| 20260902194032 | 25 | 266 | 3.2 | 4.8 | 0.00 | 0.00 | 0.00 | 63 | 1019.0 |
| 20260902193528 | 24 | 246 | 6.4 | 11.3 | 0.00 | 0.00 | 0.00 | 64 | 1018.7 |
| 20260902193027 | 25 | 180 | 3.2 | 9.7 | 0.00 | 0.00 | 0.00 | 64 | 1019.0 |
| 20260902192526 | 24 | 249 | 4.8 | 9.7 | 0.00 | 0.00 | 0.00 | 65 | 1018.7 |
| 20260902192025 | 25 | 211 | 3.2 | 6.4 | 0.00 | 0.00 | 0.00 | 62 | 1019.0 |
| 20260902191520 | 24 | 282 | 9.7 | 11.3 | 0.00 | 0.00 | 0.00 | 65 | 1019.0 |
| 20260902191015 | 25 | 193 | 3.2 | 9.7 | 0.00 | 0.00 | 0.00 | 65 | 1019.0 |
| 20260902190510 | 25 | 254 | 3.2 | 6.4 | 0.00 | 0.00 | 0.00 | 65 | 1019.0 |
| 20260902190006 | 25 | 120 | 4.8 | 12.9 | 0.00 | 0.00 | 0.00 | 65 | 1019.0 |
| 20260902185502 | 25 | 236 | 3.2 | 6.4 | 0.00 | 0.00 | 0.00 | 64 | 1019.3 |
| 20260902184956 | 25 | 339 | 1.6 | 6.4 | 0.00 | 0.00 | 0.00 | 65 | 1019.3 |
| 20260902184452 | 25 | 298 | 3.2 | 6.4 | 0.00 | 0.00 | 0.00 | 66 | 1019.3 |
| 20260902183947 | 25 | 265 | 3.2 | 11.3 | 0.00 | 0.00 | 0.00 | 66 | 1019.3 |
| 20260902183443 | 25 | 210 | 3.2 | 4.8 | 0.00 | 0.00 | 0.00 | 64 | 1019.3 |
| 20260902182939 | 25 | 316 | 3.2 | 6.4 | 0.00 | 0.00 | 0.00 | 64 | 1019.3 |
| 20260902182435 | 24 | 228 | 3.2 | 4.8 | 0.00 | 0.00 | 0.00 | 67 | 1019.3 |
| 20260902181931 | 25 | 279 | 8.0 | 9.7 | 0.00 | 0.00 | 0.00 | 65 | 1019.3 |
| 20260902181426 | 25 | 280 | 8.0 | 9.7 | 0.00 | 0.00 | 0.00 | 65 | 1019.3 |
| 20260902180921 | 25 | 240 | 1.6 | 6.4 | 0.00 | 0.00 | 0.00 | 64 | 1019.3 |
| 20260902180416 | 25 | 239 | 1.6 | 3.2 | 0.00 | 0.00 | 0.00 | 65 | 1019.3 |
| 20260902175912 | 24 | 311 | 3.2 | 4.8 | 0.00 | 0.00 | 0.00 | 66 | 1019.3 |
| 20260902175407 | 24 | 92 | 3.2 | 6.4 | 0.00 | 0.00 | 0.00 | 66 | 1019.3 |
| 20260902174902 | 24 | 226 | 3.2 | 4.8 | 0.00 | 0.00 | 0.00 | 66 | 1019.3 |
| 20260902174400 | 24 | 218 | 3.2 | 6.4 | 0.00 | 0.00 | 0.00 | 66 | 1019.3 |
| 20260902173855 | 25 | 198 | 3.2 | 6.4 | 0.00 | 0.00 | 0.00 | 66 | 1019.0 |
| 20260902173354 | 24 | 328 | 0.0 | 1.6 | 0.00 | 0.00 | 0.00 | 66 | 1019.3 |
| 20260902172849 | 23 | 264 | 3.2 | 4.8 | 0.00 | 0.00 | 0.00 | 67 | 1019.3 |
| 20260902172348 | 23 | 201 | 4.8 | 9.7 | 0.00 | 0.00 | 0.00 | 68 | 1019.3 |
| 20260902171844 | 23 | 132 | 3.2 | 4.8 | 0.00 | 0.00 | 0.00 | 66 | 1019.3 |
| 20260902171339 | 23 | 161 | 1.6 | 4.8 | 0.00 | 0.00 | 0.00 | 68 | 1019.3 |
| 20260902170835 | 23 | 145 | 3.2 | 4.8 | 0.00 | 0.00 | 0.00 | 68 | 1019.3 |
| 20260902170330 | 23 | 299 | 1.6 | 3.2 | 0.00 | 0.00 | 0.00 | 70 | 1019.3 |
| 20260902165826 | 23 | 289 | 3.2 | 4.8 | 0.00 | 0.00 | 0.00 | 68 | 1019.0 |
| 20260902165325 | 25 | 199 | 3.2 | 3.2 | 0.00 | 0.00 | 0.00 | 65 | 1019.0 |
| 20260902164819 | 23 | 352 | 0.0 | 1.6 | 0.00 | 0.00 | 0.00 | 66 | 1019.0 |
| 20260902164314 | 23 | 61 | 1.6 | 4.8 | 0.00 | 0.00 | 0.00 | 67 | 1019.0 |
| 20260902163808 | 23 | 39 | 1.6 | 4.8 | 0.00 | 0.00 | 0.00 | 66 | 1019.0 |
| 20260902163303 | 23 | 317 | 1.6 | 6.4 | 0.00 | 0.00 | 0.00 | 66 | 1019.0 |
| 20260902162802 | 23 | 101 | 3.2 | 3.2 | 0.00 | 0.00 | 0.00 | 66 | 1019.0 |
| 20260902162256 | 23 | 354 | 1.6 | 6.4 | 0.00 | 0.00 | 0.00 | 67 | 1019.0 |
| 20260902161756 | 23 | 350 | 0.0 | 3.2 | 0.00 | 0.00 | 0.00 | 68 | 1019.0 |
| 20260902161252 | 22 | 32 | 1.6 | 3.2 | 0.00 | 0.00 | 0.00 | 71 | 1019.0 |
| 20260902160748 | 23 | 353 | 3.2 | 4.8 | 0.00 | 0.00 | 0.00 | 68 | 1019.3 |